NOAA 16 DEB, 41511

Orbit data source: Space-Track

NOAA 16 DEB, 41511 is space debris in SSO originally from a launch on Thu, 21 Sep 2000 UTC launched from the Air Force Western Test Range (AFWTR). Debris objects in space refer to the collection of defunct objects orbiting the Earth. Examples of debris include non-operational satellites, rocket bodies, and fragments generated from explosions, collisions, or faulty payload assembly.

Loading next visibility...
Identifier
41511, 2000-055MK
Orbit
SSO
Country
Flag of USUS
Related business
Manufacturer
Unknown
Mission
Spacecraft
Bus & Motor
Unknown
Mass
Unknown
Launch date (UTC)
2000-09-21 (26 years ago)
Launch vehicle
Unknown
Launch site
Air Force Western Test Range (AFWTR)
Object type
Payload
Rocket body
Debris
Shape & HBR
Unknown shape, 0.1 m
Radar Cross Section
Medium (>0.1 m² and <1 m²)

Expand to show TLE details & history
Last TLE update: 2 days ago

TLE from 2 days ago
0 NOAA 16 DEB
1 41511U 00055MK  26247.96254680  .00001344  00000-0  61150-3 0  9991
2 41511  98.6830 303.2407 0023353 235.9454 123.9508 14.23271838539278
Epoch: 2026-09-04T23:06Z
TLE epoch observation values (Epoch: 2026-09-04T23:06:04.043Z)
Latitude
0.00005°
Longitude
-27.355°
Altitude
826.638 km
Speed
7.435 km/s
True Right ascension
20h 12m 57s
True Declination
0° 00' 00"
Sunlit
Object was in full shadow at epoch
Visualization orbit readout
Latitude
Unknown
Longitude
Unknown
Altitude
Unknown
Speed
Unknown
Apparent Right ascension
Unknown
Apparent Declination
Unknown
Sunlit
N/A
Visualization observer readout
Local Sidereal Time
12:55:58
Azimuth
Unknown
Elevation
Unknown
Doppler factor
Unknown
Orbital elements
Apogee altitude
828.252 km
Perigee altitude
794.672 km
Semi-major axis
7,189.599 km
Eccentricity
0.00234
Inclination
98.683°
RAAN
303.2407°
Arg. of periapsis
235.9454°
True anomaly
124.17242°
Mean anomaly
123.9508°
Eccentric anomaly
124.06165°
Mean motion
3.5603 °/min
Orbital period
101.12 mins
BSTAR
0.0006115
Loading maneuver chart data...
Computing Atmospheric mass density...

Documentation

Showing up to 5 results
|